Hammond, LA

3:39 AM CST on December 07, 2019 (GMT -0600)
Hammond Municipal

Weather History for KHDC - October, 2019

Change the Weather History Date:

Saturday, October 26, 2019

  Actual Average (KMSY) Record (KMSY)
Temperature  
Mean Temperature 65 °F -  
Max Temperature 75 °F 76 °F 89 °F (2010)
Min Temperature 55 °F 54 °F 39 °F (1965)
Growing Degree Days 15 (Base 50)    
Moisture  
Dew Point 61 °F    
Average Humidity 90    
Maximum Humidity 100    
Minimum Humidity 72    
Precipitation  
Precipitation 0.13 in - - ()
Sea Level Pressure  
Sea Level Pressure 29.78 in    
Wind  
Wind Speed 12 mph (WSW)    
Max Wind Speed 34 mph    
Max Gust Speed 58 mph    
Visibility 8 miles    
Events Thunderstorm    
Averages and records for this station are not official NWS values.
T = Trace of Precipitation, MM = Missing Value Source: NWS Daily Summary

Daily Weather History Graph

Daily Weather History Graph

Search for Another Location

Airport or City:

Astronomy

Oct. 26, 2019 Rise Set
Actual Time 7:11 AM CDT 6:19 PM CDT
Civil Twilight 6:46 AM CDT 6:43 PM CDT
Nautical Twilight 6:18 AM CDT 7:12 PM CDT
Astronomical Twilight 5:50 AM CDT 7:40 PM CDT
Moon 5:20 AM CDT (10/26) 5:44 PM CDT (10/26)
Length of Visible Light 11h 56m
Length of Day
11h 07m
Waning Crescent, 3% of the Moon is Illuminated
Oct 26
Waning Crescent
Oct 27
New
Nov 4
First Quarter
Nov 12
Full
Nov 19
Last Quarter

Hourly Weather History & Observations

Time (CDT) Temp. Dew Point Humidity Pressure Visibility Wind Dir Wind Speed Gust Speed Precip Events Conditions
12:15 AM 69.8 °F 69.8 °F 100% 29.76 in 7.0 mi Calm Calm - N/A   Overcast
12:35 AM 71.6 °F 71.6 °F 100% 29.74 in 7.0 mi SE 10.4 mph - 0.01 in   Overcast
12:55 AM 73.4 °F 73.4 °F 100% 29.74 in 7.0 mi SSE 15.0 mph 20.7 mph 0.01 in   Overcast
1:15 AM 73.4 °F 73.4 °F 100% 29.73 in 7.0 mi SE 13.8 mph 18.4 mph N/A   Overcast
1:35 AM 73.4 °F 73.4 °F 100% 29.71 in 7.0 mi SE 17.3 mph 23.0 mph N/A Thunderstorm Overcast
1:55 AM 73.4 °F 73.4 °F 100% 29.71 in 7.0 mi SE 19.6 mph 26.5 mph 0.01 in   Overcast
2:15 AM 75.2 °F 73.4 °F 94% 29.71 in 7.0 mi SSE 17.3 mph 26.5 mph N/A   Overcast
2:35 AM 75.2 °F 73.4 °F 94% 29.67 in 5.0 mi SE 26.5 mph 34.5 mph 0.01 in   Overcast
2:55 AM 75.2 °F 73.4 °F 94% 29.63 in 4.0 mi SE 28.8 mph 39.1 mph 0.01 in Thunderstorm Overcast
3:15 AM 75.2 °F 73.4 °F 94% 29.61 in 4.0 mi SE 32.2 mph 42.6 mph N/A Thunderstorm Thunderstorm
3:35 AM 75.2 °F 73.4 °F 94% 29.61 in 3.0 mi SE 26.5 mph 49.5 mph N/A Thunderstorm Thunderstorm
3:55 AM 75.2 °F 73.4 °F 94% 29.61 in 4.0 mi ESE 19.6 mph 31.1 mph N/A Thunderstorm Thunderstorm
4:15 AM 73.4 °F 73.4 °F 100% 29.56 in 1.2 mi East 15.0 mph 26.5 mph 0.01 in Thunderstorm Thunderstorm
4:35 AM 73.4 °F 71.6 °F 94% 29.44 in 2.0 mi East 26.5 mph 42.6 mph 0.01 in   Overcast
4:55 AM 73.4 °F 73.4 °F 100% 29.40 in 2.0 mi SE 28.8 mph 52.9 mph 0.02 in Thunderstorm Thunderstorm
5:15 AM 73.4 °F 71.6 °F 94% 29.42 in 7.0 mi South 34.5 mph 57.5 mph N/A   Overcast
5:55 AM 73.4 °F 71.6 °F 94% 29.49 in 4.0 mi South 26.5 mph 35.7 mph N/A   Overcast
6:15 AM 69.8 °F 69.8 °F 100% 29.55 in 7.0 mi West 19.6 mph 31.1 mph N/A   Overcast
6:35 AM 64.4 °F 64.4 °F 100% 29.60 in 4.0 mi West 20.7 mph 32.2 mph N/A   Overcast
6:55 AM 64.4 °F 62.6 °F 94% 29.64 in 5.0 mi West 16.1 mph 25.3 mph N/A   Overcast
7:15 AM 62.6 °F 62.6 °F 100% 29.68 in 3.0 mi West 15.0 mph 20.7 mph N/A   Overcast
7:35 AM 62.6 °F 60.8 °F 94% 29.70 in 5.0 mi West 8.1 mph 18.4 mph N/A   Overcast
7:55 AM 62.6 °F 60.8 °F 94% 29.73 in 10.0 mi WSW 10.4 mph - N/A   Overcast
8:15 AM 60.8 °F 59.0 °F 94% 29.75 in 3.0 mi West 12.7 mph 18.4 mph 0.01 in   Overcast
8:35 AM 60.8 °F 60.8 °F 100% 29.77 in 10.0 mi West 4.6 mph - 0.01 in   Overcast
8:55 AM 60.8 °F 60.8 °F 100% 29.79 in 1.2 mi WSW 3.5 mph - 0.01 in   Overcast
9:15 AM 60.8 °F 60.8 °F 100% 29.80 in 2.0 mi West 8.1 mph - N/A   Overcast
9:35 AM 60.8 °F 60.8 °F 100% 29.81 in 10.0 mi WSW 10.4 mph - N/A   Overcast
9:55 AM 60.8 °F 59.0 °F 94% 29.81 in 2.5 mi WSW 11.5 mph 16.1 mph N/A   Overcast
10:15 AM 60.8 °F 59.0 °F 94% 29.82 in 4.0 mi West 11.5 mph - N/A   Overcast
10:35 AM 60.8 °F 59.0 °F 94% 29.83 in 5.0 mi West 8.1 mph - 0.01 in   Overcast
10:55 AM 60.8 °F 59.0 °F 94% 29.84 in 10.0 mi West 10.4 mph 17.3 mph 0.01 in   Overcast
11:15 AM 60.8 °F 57.2 °F 88% 29.85 in 10.0 mi West 8.1 mph 16.1 mph N/A   Overcast
11:35 AM 60.8 °F 57.2 °F 88% 29.85 in 10.0 mi West 10.4 mph - N/A   Overcast
11:55 AM 60.8 °F 59.0 °F 94% 29.85 in 10.0 mi West 9.2 mph - N/A   Overcast
12:35 PM 60.8 °F 55.4 °F 82% 29.84 in 10.0 mi West 10.4 mph 17.3 mph N/A   Overcast
12:55 PM 60.8 °F 55.4 °F 82% 29.83 in 10.0 mi West 8.1 mph - N/A   Overcast
1:15 PM 60.8 °F 55.4 °F 82% 29.82 in 10.0 mi West 5.8 mph - N/A   Overcast
1:35 PM 60.8 °F 55.4 °F 82% 29.82 in 10.0 mi WSW 9.2 mph - 0.01 in   Overcast
1:55 PM 62.6 °F 55.4 °F 77% 29.81 in 10.0 mi WSW 11.5 mph - 0.01 in   Overcast
2:35 PM 64.4 °F 55.4 °F 73% 29.81 in 10.0 mi WNW 11.5 mph - N/A   Mostly Cloudy
2:55 PM 64.4 °F 55.4 °F 73% 29.81 in 10.0 mi WNW 9.2 mph - N/A   Overcast
3:35 PM 62.6 °F 53.6 °F 72% 29.82 in 10.0 mi WNW 9.2 mph - 0.01 in   Overcast
3:55 PM 62.6 °F 55.4 °F 77% 29.82 in 10.0 mi WNW 10.4 mph - 0.01 in   Overcast
4:15 PM 62.6 °F 53.6 °F 72% 29.82 in 10.0 mi WNW 8.1 mph - N/A   Overcast
4:35 PM 62.6 °F 55.4 °F 77% 29.83 in 10.0 mi West 9.2 mph - N/A   Overcast
4:55 PM 60.8 °F 55.4 °F 82% 29.83 in 10.0 mi West 10.4 mph 16.1 mph N/A   Overcast
5:15 PM 60.8 °F 53.6 °F 77% 29.84 in 10.0 mi WNW 6.9 mph - N/A   Overcast
5:35 PM 60.8 °F 53.6 °F 77% 29.85 in 10.0 mi WNW 8.1 mph - N/A   Overcast
5:55 PM 59.0 °F 53.6 °F 82% 29.85 in 10.0 mi NW 5.8 mph - 0.01 in   Mostly Cloudy
6:15 PM 59.0 °F 53.6 °F 82% 29.86 in 10.0 mi NW 5.8 mph - N/A   Mostly Cloudy
6:35 PM 59.0 °F 53.6 °F 82% 29.87 in 10.0 mi NW 3.5 mph - N/A   Overcast
6:55 PM 57.2 °F 53.6 °F 88% 29.87 in 10.0 mi Calm Calm - N/A   Mostly Cloudy
7:15 PM 57.2 °F 53.6 °F 88% 29.88 in 10.0 mi Calm Calm - N/A   Mostly Cloudy
7:35 PM 55.4 °F 53.6 °F 94% 29.89 in 10.0 mi Calm Calm - 0.01 in   Overcast
7:55 PM 57.2 °F 55.4 °F 94% 29.89 in 10.0 mi Calm Calm - 0.01 in   Overcast
8:15 PM 57.2 °F 55.4 °F 94% 29.90 in 10.0 mi Calm Calm - N/A   Overcast
8:35 PM 57.2 °F 53.6 °F 88% 29.90 in 10.0 mi Calm Calm - N/A   Overcast
8:55 PM 59.0 °F 53.6 °F 82% 29.91 in 10.0 mi Calm Calm - N/A   Overcast
9:15 PM 59.0 °F 55.4 °F 88% 29.92 in 10.0 mi Calm Calm - N/A   Overcast
9:35 PM 59.0 °F 55.4 °F 88% 29.92 in 10.0 mi Calm Calm - N/A   Overcast
9:55 PM 59.0 °F 55.4 °F 88% 29.93 in 10.0 mi Calm Calm - 0.01 in   Overcast
10:15 PM 59.0 °F 55.4 °F 88% 29.94 in 10.0 mi Calm Calm - N/A   Overcast
10:35 PM 59.0 °F 55.4 °F 88% 29.94 in 10.0 mi West 3.5 mph - N/A   Overcast
10:55 PM 59.0 °F 55.4 °F 88% 29.95 in 10.0 mi WNW 3.5 mph - N/A   Overcast
11:15 PM 59.0 °F 53.6 °F 82% 29.95 in 10.0 mi West 3.5 mph - N/A   Overcast
11:35 PM 59.0 °F 53.6 °F 82% 29.95 in 10.0 mi West 3.5 mph - 0.01 in   Overcast
11:55 PM 59.0 °F 53.6 °F 82% 29.95 in 10.0 mi WNW 3.5 mph - 0.01 in   Overcast